Starlink 36541

operational
NORAD ID: 67509 Int'l Des: 2026-012 Owner: SPXS Country: US Constellation: starlink
LEOCIRCULAR

About Starlink 36541

Description loading...

Live Position

Loading 3D Globe...

Upcoming Passes

Altitude History

Altitude vs Time

uPlot chart will show altitude changes over time

Two-Line Element Set

1 67509U 26012S 26045.42889573 .00071950 00000-0 12184-2 0 9991
2 67509 42.9986 86.7186 0000544 353.0224 7.0629 15.50639519 4197
Epoch: Feb 14, 2026 • Age: 62 hours

Current Status

Altitude 412.6 km
Velocity 7.67 km/s
Sub-Earth Point 17.71°N, 59°W
Launch Date Jan 18, 2026
Age 29 days
Type internet

Technical Details

Classification Payload
Mass 575.00 kg
Dry Mass 530.00 kg
Total Mass 575.00 kg
Length 0.30 m
Diameter 4.10 m
Span 29.00 m
Shape Box + pan
Manufacturer SPXS
Bus Type Starlink V2MO
Phase Status In Orbit
Owner/State SPXS/US

Large Constellations

Loading constellations...